Volkel, Netherlands

6:21 PM CEST on May 22, 2017 (GMT +0200)
Volkel Air Base

Weather History for EHVK - December, 2012

Change the Weather History Date:

Friday, December 14, 2012

  Actual Average Record
Temperature  
Mean Temperature 41 °F -  
Max Temperature 50 °F 41 °F 53 °F (1998)
Min Temperature 32 °F 32 °F 19 °F (2001)
Degree Days  
Heating Degree Days 24    
Moisture  
Dew Point 38 °F    
Average Humidity 92    
Maximum Humidity 100    
Minimum Humidity 87    
Precipitation  
Precipitation 0.00 in - - ()
Sea Level Pressure  
Sea Level Pressure 29.43 in    
Wind  
Wind Speed 8 mph ()    
Max Wind Speed 17 mph    
Max Gust Speed 29 mph    
Visibility 5.2 miles    
Events Rain    
Averages and records for this station are not official NWS values.
T = Trace of Precipitation, MM = Missing Value Source: Averaged Metar Reports

Daily Weather History Graph

Daily Weather History Graph

Search for Another Location

Airport or City:

Trip Planner

Search our weather history database for the weather conditions in past years. The results will help you decide how hot, cold, wet, or windy it might be!

Date:

Astronomy

Dec. 14, 2012 Rise Set
Actual Time 8:36 AM CET 4:27 PM CET
Civil Twilight 7:56 AM CET 5:07 PM CET
Nautical Twilight 7:12 AM CET 5:51 PM CET
Astronomical Twilight 6:32 AM CET 6:31 PM CET
Moon 9:22 AM CET (12/14) 6:07 PM CET (12/14)
Length of Visible Light 9h 11m
Length of Day
7h 50m
New Moon, 2% of the Moon is Illuminated
Dec 14
New Moon
Dec 20
First Quarter
Dec 28
Full
Jan 5
Last Quarter
Jan 11
New

Hourly Weather History & Observations

Time (CET) Temp. Windchill Dew Point Humidity Pressure Visibility Wind Dir Wind Speed Gust Speed Precip Events Conditions
12:12 AM 32.0 °F 27.5 °F 32.0 °F 100% 29.68 in 1.9 mi SE 4.6 mph - N/A   Overcast
12:18 AM 32.0 °F 28.7 °F 32.0 °F 100% 29.68 in - SE 3.5 mph - N/A   Mostly Cloudy
12:25 AM 32.0 °F 27.5 °F 32.0 °F 100% 29.68 in 1.7 mi SE 4.6 mph - N/A   Mostly Cloudy
12:55 AM 33.8 °F 29.6 °F 32.0 °F 93% 29.68 in 1.8 mi ESE 4.6 mph - N/A   Overcast
1:18 AM 33.8 °F 28.6 °F 32.0 °F 93% 29.68 in - ESE 5.8 mph - N/A   Overcast
1:25 AM 33.8 °F 28.6 °F 32.0 °F 93% 29.68 in - ESE 5.8 mph - N/A   Overcast
1:35 AM 33.8 °F 28.6 °F 32.0 °F 93% 29.68 in - ESE 5.8 mph - N/A   Overcast
1:55 AM 33.8 °F 27.7 °F 32.0 °F 93% 29.65 in 3.1 mi SE 6.9 mph - N/A   Overcast
2:08 AM 33.8 °F 27.0 °F 32.0 °F 93% 29.65 in 3.7 mi SE 8.1 mph - N/A   Overcast
2:25 AM 33.8 °F 27.0 °F 32.0 °F 93% 29.65 in 3.7 mi SE 8.1 mph - N/A   Overcast
2:55 AM 33.8 °F 27.0 °F 33.8 °F 100% 29.65 in 3.7 mi SE 8.1 mph - N/A   Overcast
3:25 AM 35.6 °F 29.2 °F 33.8 °F 93% 29.65 in 4.3 mi SE 8.1 mph - N/A   Overcast
3:55 AM 35.6 °F 29.9 °F 33.8 °F 93% 29.62 in 3.7 mi SE 6.9 mph - N/A   Overcast
4:25 AM 35.6 °F 29.9 °F 33.8 °F 93% 29.62 in 4.3 mi SE 6.9 mph - N/A   Overcast
4:55 AM 35.6 °F 30.7 °F 33.8 °F 93% 29.62 in 4.3 mi ESE 5.8 mph - N/A   Overcast
5:25 AM 35.6 °F 29.2 °F 33.8 °F 93% 29.62 in 4.3 mi ESE 8.1 mph - N/A   Overcast
5:55 AM 35.6 °F 29.9 °F 33.8 °F 93% 29.62 in 4.3 mi SE 6.9 mph - N/A   Overcast
6:25 AM 35.6 °F 29.2 °F 33.8 °F 93% 29.62 in 5.0 mi ESE 8.1 mph - N/A   Overcast
6:37 AM 35.6 °F 29.2 °F 33.8 °F 93% 29.62 in 5.6 mi ESE 8.1 mph - N/A   Overcast
6:55 AM 35.6 °F 28.6 °F 33.8 °F 93% 29.59 in 5.6 mi ESE 9.2 mph - N/A   Overcast
6:59 AM 35.6 °F 28.6 °F 33.8 °F 93% 29.59 in 5.6 mi ESE 9.2 mph - N/A   Overcast
7:25 AM 35.6 °F 29.2 °F 33.8 °F 93% 29.59 in 5.6 mi ESE 8.1 mph - N/A   Overcast
7:55 AM 35.6 °F 29.2 °F 33.8 °F 93% 29.59 in 5.6 mi ESE 8.1 mph - N/A   Overcast
8:25 AM 37.4 °F 30.8 °F 33.8 °F 87% 29.56 in 5.6 mi ESE 9.2 mph - N/A   Overcast
8:55 AM 35.6 °F 28.6 °F 33.8 °F 93% 29.56 in 5.6 mi East 9.2 mph - N/A   Overcast
9:25 AM 35.6 °F 28.0 °F 33.8 °F 93% 29.53 in 5.6 mi ESE 10.4 mph - N/A   Overcast
9:55 AM 37.4 °F 30.8 °F 33.8 °F 87% 29.53 in 5.6 mi ESE 9.2 mph - N/A   Partly Cloudy
10:25 AM 37.4 °F 31.4 °F 35.6 °F 93% 29.53 in 5.6 mi ESE 8.1 mph - N/A   Mist
10:55 AM 37.4 °F 30.3 °F 35.6 °F 93% 29.53 in 6.2 mi SE 10.4 mph - N/A   Overcast
11:25 AM 39.2 °F 32.0 °F 35.6 °F 87% 29.50 in 6.2 mi SE 11.5 mph - N/A   Scattered Clouds
11:55 AM 39.2 °F 31.6 °F 35.6 °F 87% 29.47 in 6.2 mi SE 12.7 mph - N/A   Mostly Cloudy
11:56 AM 39.2 °F 31.6 °F 37.4 °F 93% 29.47 in 6.2 mi SE 12.7 mph - N/A   Mostly Cloudy
12:25 PM 41.0 °F 32.8 °F 37.4 °F 87% 29.44 in 6.2 mi SE 16.1 mph - N/A   Overcast
12:55 PM 41.0 °F 33.5 °F 37.4 °F 87% 29.42 in 6.2 mi SE 13.8 mph - N/A   Mostly Cloudy
1:25 PM 41.0 °F 33.9 °F 37.4 °F 87% 29.39 in 6.2 mi ESE 12.7 mph - N/A   Overcast
1:55 PM 41.0 °F 32.8 °F 37.4 °F 87% 29.39 in 6.2 mi SE 16.1 mph - N/A   Scattered Clouds
2:25 PM 41.0 °F 32.8 °F 37.4 °F 87% 29.33 in 6.2 mi SE 16.1 mph - N/A   Mostly Cloudy
2:55 PM 41.0 °F 33.1 °F 37.4 °F 87% 29.30 in 6.2 mi ESE 15.0 mph - N/A   Scattered Clouds
3:25 PM 41.0 °F 32.8 °F 37.4 °F 87% 29.30 in 6.2 mi ESE 16.1 mph - N/A   Overcast
3:55 PM 41.0 °F 33.1 °F 39.2 °F 93% 29.27 in 5.6 mi SE 15.0 mph - N/A Rain Light Rain Showers
4:25 PM 41.0 °F 33.1 °F 39.2 °F 93% 29.27 in 4.3 mi SE 15.0 mph - N/A Rain Rain Showers
4:55 PM 41.0 °F 33.1 °F 39.2 °F 93% 29.24 in 3.1 mi SE 15.0 mph 28.8 mph N/A Rain Light Rain Showers
5:25 PM 42.8 °F 35.1 °F 41.0 °F 93% 29.21 in - SE 16.1 mph - N/A Rain Light Rain
5:55 PM 42.8 °F 34.8 °F 41.0 °F 93% 29.18 in 3.7 mi SE 17.3 mph - N/A Rain Light Rain
6:25 PM 42.8 °F 35.4 °F 42.8 °F 100% 29.18 in 5.0 mi SSE 15.0 mph - N/A Rain Light Rain Showers
6:55 PM 44.6 °F 38.1 °F 42.8 °F 93% 29.15 in 5.6 mi SSE 13.8 mph - N/A Rain Light Rain
7:25 PM 44.6 °F 38.4 °F 42.8 °F 93% 29.15 in 6.2 mi SSE 12.7 mph - N/A Rain Light Rain
7:55 PM 46.4 °F 40.7 °F 44.6 °F 93% 29.15 in 6.2 mi SSE 12.7 mph - N/A Rain Light Rain
8:25 PM 46.4 °F 40.7 °F 44.6 °F 93% 29.15 in 6.2 mi South 12.7 mph - N/A Rain Light Rain
8:55 PM 48.2 °F - 46.4 °F 93% 29.15 in 6.2 mi South 15.0 mph - N/A   Mostly Cloudy
9:25 PM 50.0 °F - 46.4 °F 87% 29.15 in 6.2 mi South 17.3 mph - N/A   Mostly Cloudy
10:20 PM 48.2 °F - 46.4 °F 93% 29.18 in 6.2 mi South 12.7 mph - N/A   Mostly Cloudy
10:25 PM 50.0 °F - 46.4 °F 87% 29.18 in 6.2 mi South 12.7 mph - N/A   Overcast
10:30 PM 48.2 °F - 46.4 °F 93% 29.18 in 6.2 mi South 12.7 mph - N/A   Mostly Cloudy
10:40 PM 48.2 °F - 46.4 °F 93% 29.18 in 6.2 mi South 13.8 mph - N/A   Partly Cloudy
10:55 PM 48.2 °F - 46.4 °F 93% 29.18 in 6.2 mi South 13.8 mph - N/A   Partly Cloudy
11:21 PM 48.2 °F - 46.4 °F 93% 29.18 in 6.2 mi SSW 11.5 mph - N/A   Mostly Cloudy
11:25 PM 50.0 °F - 46.4 °F 87% 29.18 in 6.2 mi SSW 12.7 mph - N/A   Mostly Cloudy
11:29 PM 48.2 °F - 46.4 °F 93% 29.21 in 6.2 mi South 12.7 mph - N/A   Overcast
11:55 PM 50.0 °F - 46.4 °F 87% 29.21 in 6.2 mi SSW 15.0 mph - N/A   Mostly Cloudy